Location: Clarion
(42.7316°N, 93.7330°W)
Time: 22:44:36
(UTC+00:00)

ACS3 Solar Sail - Pass Details

Date: 22 April 2026
Orbit: 894 x 947 km, 97.2° (Epoch: 12 May)

Event Time Altitude Azimuth Distance (km) Brightness Sun altitude
Rises 08:09:27 0° 4° (N) 3,550 5.6 -28.9°
Reaches altitude 10° 08:11:58 10° 358° (N) 2,612 4.7 -28.7°
Enters shadow 08:17:07 41° 297° (WNW) 1,308 2.3 -28.2°
